Change the Weather History Date:

Saturday, January 5, 2013

  Actual Average Record
Temperature  
Mean Temperature 46 °F -  
Max Temperature 57 °F 55 °F 64 °F (2003)
Min Temperature 35 °F 40 °F 32 °F (2002)
Degree Days  
Heating Degree Days 19    
Moisture  
Dew Point 41 °F    
Average Humidity 79    
Maximum Humidity 100    
Minimum Humidity 54    
Precipitation  
Precipitation 0.00 in - - ()
Sea Level Pressure  
Sea Level Pressure 29.93 in    
Wind  
Wind Speed 0 mph ()    
Max Wind Speed 0 mph    
Max Gust Speed -    
Visibility 6.2 miles    
Events      
Averages and records for this station are not official NWS values.
T = Trace of Precipitation, MM = Missing Value Source: Averaged Metar Reports

Daily Weather History Graph

Daily Weather History Graph

Search for Another Location

Airport or City:

Trip Planner

Search our weather history database for the weather conditions in past years. The results will help you decide how hot, cold, wet, or windy it might be!

Date:

Astronomy

Jan. 05, 2013 Rise Set
Actual Time 7:51 AM EET 5:28 PM EET
Civil Twilight 7:21 AM EET 5:57 PM EET
Nautical Twilight 6:48 AM EET 6:30 PM EET
Astronomical Twilight 6:16 AM EET 7:02 PM EET
Moon 12:40 AM EET (1/5) 12:04 PM EET (1/5)
Length of Visible Light 10h 36m
Length of Day
9h 37m
Waning Gibbous, 47% of the Moon is Illuminated
Jan 5
Waning Gibbous
Jan 11
New
Jan 19
First Quarter
Jan 27
Full
Feb 3
Last Quarter

Hourly Weather History & Observations

Time (EET) Temp. Dew Point Humidity Pressure Visibility Wind Dir Wind Speed Gust Speed Precip Events Conditions
12:50 AM 39.2 °F 37.4 °F 93% 30.06 in - Calm Calm - N/A   Clear
1:50 AM 37.4 °F 35.6 °F 93% 30.04 in - Calm Calm - N/A   Clear
2:50 AM 37.4 °F 35.6 °F 93% 30.04 in - Calm Calm - N/A   Clear
3:50 AM 37.4 °F 35.6 °F 93% 30.01 in - Calm Calm - N/A   Clear
4:50 AM 37.4 °F 35.6 °F 93% 30.01 in - Calm Calm - N/A   Clear
5:50 AM 39.2 °F 35.6 °F 87% 29.98 in - Calm Calm - N/A   Clear
7:20 AM 39.2 °F 35.6 °F 87% 29.98 in - Calm Calm - N/A   Clear
7:50 AM 35.6 °F 35.6 °F 100% 29.98 in - Calm Calm - N/A   Clear
8:20 AM 35.6 °F 35.6 °F 100% 29.98 in - Calm Calm - N/A   Clear
8:50 AM 39.2 °F 37.4 °F 93% 29.98 in - Calm Calm - N/A   Clear
9:20 AM 42.8 °F 41.0 °F 93% 29.98 in - Calm Calm - N/A   Clear
9:50 AM 46.4 °F 42.8 °F 87% 29.98 in - Calm Calm - N/A   Clear
10:20 AM 46.4 °F 42.8 °F 87% 29.98 in - Calm Calm - N/A   Clear
10:50 AM 55.4 °F 48.2 °F 77% 29.98 in - Calm Calm - N/A   Clear
11:20 AM 55.4 °F 48.2 °F 77% 29.98 in - Calm Calm - N/A   Clear
11:50 AM 57.2 °F 53.6 °F 88% 29.95 in - Calm Calm - N/A   Clear
12:20 PM 57.2 °F 53.6 °F 88% 29.95 in - Calm Calm - N/A   Clear
12:50 PM 55.4 °F 44.6 °F 67% 29.92 in 6.2 mi Calm Calm - N/A   Mostly Cloudy
1:20 PM 55.4 °F 44.6 °F 67% 29.92 in 6.2 mi Calm Calm - N/A   Mostly Cloudy
1:50 PM 55.4 °F 39.2 °F 54% 29.92 in 6.2 mi Calm Calm - N/A   Mostly Cloudy
2:20 PM 55.4 °F 39.2 °F 54% 29.92 in 6.2 mi Calm Calm - N/A   Mostly Cloudy
2:50 PM 57.2 °F 41.0 °F 55% 29.89 in 6.2 mi Calm Calm - N/A   Scattered Clouds
3:20 PM 57.2 °F 41.0 °F 55% 29.89 in 6.2 mi Calm Calm - N/A   Scattered Clouds
3:50 PM 57.2 °F 41.0 °F 55% 29.89 in 6.2 mi Calm Calm - N/A   Scattered Clouds
4:20 PM 57.2 °F 41.0 °F 55% 29.89 in 6.2 mi Calm Calm - N/A   Scattered Clouds
4:50 PM 55.4 °F 44.6 °F 67% 29.86 in 6.2 mi Calm Calm - N/A   Scattered Clouds
5:20 PM 55.4 °F 44.6 °F 67% 29.86 in 6.2 mi Calm Calm - N/A   Scattered Clouds
5:50 PM 53.6 °F 42.8 °F 67% 29.86 in 6.2 mi Calm Calm - N/A   Mostly Cloudy
6:20 PM 53.6 °F 42.8 °F 67% 29.86 in 6.2 mi Calm Calm - N/A   Mostly Cloudy
6:50 PM 50.0 °F 44.6 °F 82% 29.86 in 6.2 mi Calm Calm - N/A   Scattered Clouds
7:20 PM 50.0 °F 44.6 °F 82% 29.86 in 6.2 mi Calm Calm - N/A   Scattered Clouds
7:50 PM 44.6 °F 41.0 °F 87% 29.86 in 6.2 mi Calm Calm - N/A   Partly Cloudy
8:50 PM 44.6 °F 41.0 °F 87% 29.83 in 6.2 mi Calm Calm - N/A   Partly Cloudy
9:50 PM 42.8 °F 39.2 °F 87% 29.83 in 6.2 mi Calm Calm - N/A   Partly Cloudy
10:50 PM 41.0 °F 39.2 °F 93% 29.83 in 6.2 mi Calm Calm - N/A   Partly Cloudy